#timestamp,LO_Frequency,Hit,StdDev 
1560564015.5,286047005.5,N
1560564035.3,286047003.5,N
1560564055.2,286047002.9,N
1560564075.0,286047003.1,N
1560564075.9,286047003.1,N
1560564095.8,286047003.9,N
1560564115.6,286047000.3,N
1560564135.4,286047002.5,N
1560564155.3,286047004.1,N
1560564175.1,286047003.5,N
1560564195.8,286047002.0,N
1560564215.7,286047001.3,N
1560564235.5,286047004.2,N
1560564255.4,286047001.7,N
1560564275.2,286047003.8,N
1560564295.0,286047003.4,N
1560564295.9,286047003.4,N
1560564315.8,286047001.8,N
1560564335.6,286047003.3,N
1560564355.5,286047001.7,N
1560564375.3,286047002.0,N
1560564395.1,286047001.7,N
1560564415.9,286047002.1,N
1560564435.7,286047001.6,N
1560564455.5,286047002.1,N
1560564475.4,286047001.9,N
1560564495.2,286047001.4,N
1560564515.1,286047005.3,Y
1560564516.0,286047005.3,P
1560564535.8,286047001.0,N
1560564555.6,286046998.6,N
1560564575.5,286047000.0,N
1560564595.3,286046999.7,N
1560564615.1,286047000.8,N
1560564635.9,286047000.6,N
1560564655.7,286046999.9,N
1560564675.6,286047001.2,N
1560564695.4,286047000.7,N
1560564715.2,286046998.1,N
1560564735.1,286047001.1,N
1560564736.0,286047001.1,N
1560564755.8,286047000.7,N
1560564775.7,286046999.7,N
1560564795.5,286047001.1,N
1560564815.3,286046998.8,N
1560564835.2,286046999.9,N
1560564855.0,286046999.8,N
1560564855.9,286046999.8,N
1560564875.8,286047002.5,N
1560564895.6,286047002.4,N
1560564915.4,286047001.5,N
1560564935.3,286047002.1,N
1560564955.1,286047000.6,N
1560564975.8,286047000.4,N
1560564995.7,286046999.8,N
1560565015.5,286047002.3,N
1560565035.4,286047004.3,N
1560565055.2,286047001.5,N
1560565075.0,286047001.3,N
1560565075.9,286047001.3,N
1560565095.8,286047002.8,N
1560565115.6,286047000.2,N
1560565135.5,286047001.9,N
1560565155.3,286047002.1,N
1560565175.1,286047002.0,N
1560565195.9,286047001.7,N
1560565215.7,286047003.9,Y
1560565235.1,286047002.1,P
1560565255.9,286047002.8,P
1560565275.7,286047002.7,P
1560565295.6,286047000.7,N
1560565315.4,286047000.0,N
1560565335.2,286047000.8,N
1560565355.1,286046998.3,N
1560565356.0,286046998.3,N
1560565375.8,286047000.8,N
1560565395.6,286047000.3,N
1560565415.5,286046998.1,N
1560565435.3,286046999.0,N
1560565455.2,286047000.8,N
1560565475.9,286046998.2,N
1560565495.7,286047001.1,N
1560565515.6,286047000.8,N
1560565535.4,286047001.1,N
1560565555.2,286047000.7,N
1560565575.1,286046998.1,N
1560565576.0,286046998.1,N
1560565595.8,286047000.7,N
1560565615.7,286047000.1,N
1560565635.5,286047002.3,N
1560565655.3,286047002.8,N
1560565675.2,286047000.2,N
1560565695.0,286047000.2,N
1560565695.9,286047000.2,N
1560565715.8,286046998.2,N
1560565735.6,286046998.1,N
1560565755.4,286047000.2,N
1560565775.3,286047002.0,N
1560565795.1,286047002.5,N
1560565815.8,286047001.4,N
1560565835.7,286047001.7,N
1560565855.5,286047000.1,N
1560565875.4,286047000.5,N
1560565895.2,286047002.5,N
1560565915.0,286047002.7,N
1560565915.9,286047002.7,N
1560565935.8,286046998.5,N
1560565955.6,286047001.1,N
1560565975.4,286047001.1,N
1560565995.3,286047002.0,N
1560566015.1,286047000.6,N
1560566035.9,286046998.4,N
1560566055.7,286047000.9,N
1560566075.5,286047000.0,N
1560566095.4,286047002.6,N
1560566115.2,286047004.0,N
1560566135.0,286047001.4,N
1560566135.9,286047001.4,N
1560566155.8,286047005.4,Y
1560566175.6,286047001.3,P
1560566195.5,286047004.2,P
1560566215.3,286047001.5,N
1560566235.1,286047002.3,N
1560566255.9,286047004.3,Y
1560566275.7,286047000.7,P
1560566295.5,286046998.5,N
1560566315.4,286047000.3,N
1560566335.2,286047002.7,N
1560566355.1,286047002.3,N
1560566356.0,286047002.3,N
1560566375.8,286047002.2,N
1560566395.6,286047001.5,N
1560566415.5,286047001.7,N
1560566435.3,286047001.6,N
1560566455.2,286047002.5,N
1560566475.9,286047002.1,N
1560566495.7,286047002.5,N
1560566515.6,286047000.2,N
1560566535.4,286047000.5,N
1560566555.2,286047000.6,N
1560566575.1,286047000.5,N
1560566576.0,286047000.5,N
1560566595.8,286047001.2,N
1560566615.7,286046998.5,N
1560566635.5,286046998.4,N
1560566655.3,286046997.1,N
1560566675.2,286046998.9,N
1560566695.0,286046997.6,N
1560566695.9,286046997.6,N
1560566715.7,286046996.7,N
1560566735.6,286046997.3,N
1560566755.4,286046998.0,N
1560566775.3,286046997.7,N
1560566795.1,286046996.6,N
1560566796.0,286046996.6,N
1560566815.8,286046999.3,N
1560566835.7,286046997.4,N
1560566855.5,286046995.1,N
1560566875.3,286046995.6,N
1560566895.2,286046997.9,N
1560566915.0,286046996.9,N
1560566915.9,286046996.9,N
1560566935.8,286046997.2,N
1560566955.6,286046996.8,N
1560566975.4,286046997.4,N
1560566995.3,286046997.7,N
1560567015.1,286046995.3,N
1560567035.9,286046998.0,N
1560567055.7,286046995.8,N
1560567075.5,286046995.9,N
1560567095.4,286046996.2,N
1560567115.2,286046994.7,Y
1560567135.0,286046997.9,P
1560567135.9,286046997.9,P
1560567155.8,286046999.1,P
1560567175.6,286046999.1,N
1560567195.5,286046998.6,N
1560567215.3,286047001.2,N
1560567235.1,286046998.7,N
1560567255.9,286047000.8,N
1560567275.7,286046998.2,N
1560567295.5,286046999.0,N
1560567315.4,286047000.9,N
1560567335.2,286047000.1,N
1560567355.1,286046999.9,N
1560567356.0,286046999.9,N
1560567375.8,286047000.5,N
1560567395.6,286047000.7,N
1560567415.5,286046997.5,N
1560567435.3,286046996.2,Y
1560567455.2,286046995.2,P
1560567475.9,286046996.6,N
1560567495.7,286046999.3,N
1560567515.6,286047001.2,N
1560567535.4,286047000.6,N
1560567555.2,286046998.5,N
1560567575.1,286046998.5,N
1560567576.0,286046998.5,N
1560567595.8,286046998.2,N
